TimeCST,TemperatureF,Dew PointF,Humidity,Sea Level PressureIn,VisibilityMPH,Wind Direction,Wind SpeedMPH,Gust SpeedMPH,PrecipitationIn,Events,Conditions,WindDirDegrees,DateUTC
12:15 AM,35.8,26.6,69,30.25,10.0,SE,4.6,-,N/A,,Clear,130,2013-11-08 06:15:00
12:35 AM,36.5,26.6,67,30.25,10.0,SE,5.8,-,N/A,,Clear,130,2013-11-08 06:35:00
12:55 AM,36.7,26.4,66,30.24,10.0,SE,5.8,-,N/A,,Clear,140,2013-11-08 06:55:00
1:15 AM,37.2,26.6,65,30.23,10.0,SSE,6.9,-,N/A,,Clear,160,2013-11-08 07:15:00
1:35 AM,37.4,26.8,66,30.22,10.0,SSE,9.2,-,N/A,,Clear,160,2013-11-08 07:35:00
1:55 AM,38.3,26.6,63,30.21,10.0,SSE,10.4,-,N/A,,Clear,160,2013-11-08 07:55:00
2:15 AM,37.4,27.3,67,30.21,10.0,SSE,8.1,-,N/A,,Clear,160,2013-11-08 08:15:00
2:35 AM,37.0,27.1,67,30.20,10.0,SSE,9.2,-,N/A,,Clear,150,2013-11-08 08:35:00
2:55 AM,37.2,27.5,68,30.19,10.0,SSE,9.2,-,N/A,,Clear,160,2013-11-08 08:55:00
3:15 AM,37.8,27.7,67,30.17,10.0,SSE,10.4,-,N/A,,Clear,150,2013-11-08 09:15:00
3:35 AM,38.3,28.2,67,30.16,10.0,SSE,9.2,-,N/A,,Clear,150,2013-11-08 09:35:00
3:55 AM,38.7,28.0,66,30.14,10.0,SSE,10.4,-,N/A,,Clear,150,2013-11-08 09:55:00
4:15 AM,39.4,28.2,64,30.13,10.0,SSE,11.5,-,N/A,,Clear,150,2013-11-08 10:15:00
4:35 AM,39.6,28.4,64,30.12,10.0,SSE,11.5,-,N/A,,Clear,150,2013-11-08 10:35:00
4:55 AM,39.9,28.9,65,30.10,10.0,SSE,12.7,-,N/A,,Clear,150,2013-11-08 10:55:00
5:15 AM,40.3,29.3,65,30.09,10.0,SSE,13.8,-,N/A,,Clear,150,2013-11-08 11:15:00
5:35 AM,41.2,30.2,65,30.08,10.0,SSE,12.7,-,N/A,,Clear,150,2013-11-08 11:35:00
5:55 AM,41.7,30.7,65,30.06,10.0,SSE,15.0,-,N/A,,Clear,150,2013-11-08 11:55:00
6:15 AM,41.9,31.1,66,30.05,10.0,SSE,15.0,19.6,N/A,,Clear,150,2013-11-08 12:15:00
6:35 AM,42.3,32.0,67,30.03,10.0,SSE,15.0,23.0,N/A,,Clear,160,2013-11-08 12:35:00
6:55 AM,41.7,32.0,68,30.03,10.0,SSE,18.4,24.2,N/A,,Clear,150,2013-11-08 12:55:00
7:15 AM,41.9,32.0,68,30.02,10.0,SSE,15.0,-,N/A,,Clear,150,2013-11-08 13:15:00
7:35 AM,42.3,32.0,67,30.00,10.0,SSE,19.6,25.3,N/A,,Clear,150,2013-11-08 13:35:00
7:55 AM,43.0,32.0,65,29.99,10.0,SSE,15.0,23.0,N/A,,Clear,150,2013-11-08 13:55:00
8:15 AM,43.2,32.4,66,29.98,10.0,SSE,17.3,24.2,N/A,,Clear,160,2013-11-08 14:15:00
8:35 AM,44.4,32.9,64,29.97,10.0,SSE,15.0,-,N/A,,Clear,150,2013-11-08 14:35:00
8:55 AM,48.2,32.2,54,29.95,10.0,South,24.2,31.1,N/A,,Clear,170,2013-11-08 14:55:00
9:15 AM,48.9,32.0,52,29.94,10.0,South,18.4,28.8,N/A,,Clear,170,2013-11-08 15:15:00
9:35 AM,49.1,32.5,53,29.93,10.0,South,16.1,25.3,N/A,,Clear,180,2013-11-08 15:35:00
9:55 AM,50.2,33.3,52,29.93,10.0,South,15.0,-,N/A,,Clear,180,2013-11-08 15:55:00
10:15 AM,51.4,34.2,52,29.91,10.0,South,16.1,23.0,N/A,,Clear,180,2013-11-08 16:15:00
10:35 AM,52.9,34.3,49,29.90,10.0,South,16.1,20.7,N/A,,Clear,190,2013-11-08 16:35:00
10:55 AM,55.4,32.9,43,29.87,10.0,South,20.7,32.2,N/A,,Clear,180,2013-11-08 16:55:00
11:15 AM,56.3,32.5,41,29.85,10.0,South,23.0,34.5,N/A,,Clear,190,2013-11-08 17:15:00
11:35 AM,57.7,33.1,39,29.85,10.0,South,18.4,32.2,N/A,,Clear,190,2013-11-08 17:35:00
11:55 AM,58.6,32.0,37,29.85,10.0,SSW,23.0,33.4,N/A,,Clear,200,2013-11-08 17:55:00
12:15 PM,59.4,31.8,35,29.82,10.0,SSW,27.6,33.4,N/A,,Clear,200,2013-11-08 18:15:00
12:35 PM,60.4,32.2,35,29.79,10.0,South,27.6,36.8,N/A,,Clear,190,2013-11-08 18:35:00
12:55 PM,60.8,31.8,34,29.78,10.0,SSW,27.6,38.0,N/A,,Clear,210,2013-11-08 18:55:00
1:15 PM,61.3,32.0,33,29.78,10.0,SSW,25.3,32.2,N/A,,Clear,210,2013-11-08 19:15:00
1:35 PM,61.9,32.0,33,29.76,10.0,SSW,29.9,36.8,N/A,,Clear,210,2013-11-08 19:35:00
1:55 PM,63.1,32.0,31,29.78,10.0,SW,27.6,34.5,N/A,,Clear,230,2013-11-08 19:55:00
2:15 PM,63.9,31.8,30,29.77,10.0,SW,26.5,34.5,N/A,,Clear,220,2013-11-08 20:15:00
2:35 PM,64.0,31.6,30,29.78,10.0,SW,21.9,33.4,N/A,,Clear,220,2013-11-08 20:35:00
2:55 PM,64.4,32.0,30,29.78,10.0,SW,25.3,29.9,N/A,,Clear,220,2013-11-08 20:55:00
3:15 PM,64.0,32.0,30,29.78,10.0,SW,19.6,28.8,N/A,,Clear,220,2013-11-08 21:15:00
3:35 PM,64.2,32.2,30,29.75,10.0,SSW,19.6,29.9,N/A,,Clear,210,2013-11-08 21:35:00
3:55 PM,63.9,32.9,31,29.78,10.0,SW,18.4,27.6,N/A,,Clear,230,2013-11-08 21:55:00
4:15 PM,63.3,33.4,33,29.77,10.0,SSW,12.7,18.4,N/A,,Clear,200,2013-11-08 22:15:00
4:35 PM,62.2,34.3,35,29.78,10.0,SW,9.2,-,N/A,,Clear,220,2013-11-08 22:35:00
4:55 PM,62.2,34.0,35,29.78,10.0,SSW,10.4,-,N/A,,Clear,210,2013-11-08 22:55:00
5:15 PM,61.0,33.8,36,29.78,10.0,SSW,8.1,-,N/A,,Clear,210,2013-11-08 23:15:00
5:35 PM,59.0,33.8,39,29.79,10.0,SSW,6.9,-,N/A,,Clear,200,2013-11-08 23:35:00
5:55 PM,56.8,33.8,42,29.80,10.0,South,4.6,-,N/A,,Clear,190,2013-11-08 23:55:00
6:15 PM,56.7,32.9,41,29.82,10.0,Calm,Calm,-,N/A,,Clear,0,2013-11-09 00:15:00
6:35 PM,55.8,32.9,42,29.83,10.0,South,3.5,-,N/A,,Clear,190,2013-11-09 00:35:00
6:55 PM,52.2,33.6,49,29.84,10.0,South,5.8,-,N/A,,Clear,180,2013-11-09 00:55:00
7:15 PM,51.3,33.8,51,29.84,10.0,South,4.6,-,N/A,,Clear,190,2013-11-09 01:15:00
7:35 PM,49.6,33.8,54,29.84,10.0,South,6.9,-,N/A,,Clear,190,2013-11-09 01:35:00
7:55 PM,51.6,34.3,52,29.85,10.0,SW,5.8,-,N/A,,Clear,220,2013-11-09 01:55:00
8:15 PM,52.7,34.9,51,29.86,10.0,WSW,6.9,-,N/A,,Clear,240,2013-11-09 02:15:00
8:35 PM,49.5,35.1,58,29.88,10.0,West,4.6,-,N/A,,Clear,270,2013-11-09 02:35:00
8:55 PM,50.5,34.0,53,29.89,10.0,WNW,6.9,-,N/A,,Clear,300,2013-11-09 02:55:00
9:15 PM,46.6,34.2,62,29.90,10.0,West,3.5,-,N/A,,Clear,280,2013-11-09 03:15:00
9:35 PM,44.4,33.6,66,29.91,10.0,SW,3.5,-,N/A,,Clear,230,2013-11-09 03:35:00
9:55 PM,43.9,33.8,68,29.92,10.0,SSW,4.6,-,N/A,,Clear,210,2013-11-09 03:55:00
10:15 PM,44.4,34.2,67,29.92,10.0,South,3.5,-,N/A,,Clear,170,2013-11-09 04:15:00
10:35 PM,43.9,33.8,68,29.93,10.0,Calm,Calm,-,N/A,,Clear,0,2013-11-09 04:35:00
10:55 PM,41.4,34.5,77,29.93,10.0,Calm,Calm,-,N/A,,Clear,0,2013-11-09 04:55:00
11:15 PM,42.6,34.5,73,29.94,10.0,Calm,Calm,-,N/A,,Clear,0,2013-11-09 05:15:00
11:35 PM,39.2,32.9,78,29.95,10.0,Calm,Calm,-,N/A,,Clear,0,2013-11-09 05:35:00
11:55 PM,38.5,32.9,80,29.95,10.0,Calm,Calm,-,N/A,,Clear,0,2013-11-09 05:55:00